Location: Caltech
(34.1382°N, 118.1253°W)
Time: 16:54:53
(UTC-07:00)

Courier 1B - Visible Passes

Search period start: 27 May 2015 00:00
Search period end: 06 June 2015 00:00
Orbit: 963 x 1209 km, 28.3° (Epoch: 27 May)

Date Brightness Start Highest point End Pass type
(mag) Time Alt. Az. Time Alt. Az. Time Alt. Az.
27 May 8.0 21:54:56 10° W 22:02:35 56° S 22:05:28 37° SE visible
27 May 9.3 23:49:26 10° W 23:52:21 23° WSW 23:52:21 23° WSW visible
28 May 8.1 21:01:02 10° WSW 21:08:42 57° S 21:14:54 16° ESE visible
28 May 8.3 22:55:21 10° W 23:01:47 43° SSW 23:01:47 43° SSW visible
29 May 8.1 22:01:20 10° W 22:08:53 51° S 22:11:11 40° SE visible
29 May 9.7 23:56:14 10° W 23:58:04 16° WSW 23:58:04 16° WSW visible
30 May 8.2 21:07:25 10° W 21:15:01 55° S 21:20:34 19° ESE visible
30 May 8.8 23:02:00 10° W 23:07:26 32° SW 23:07:26 32° SW visible
31 May 8.2 20:13:34 10° WSW 20:21:06 57° S 20:28:47 10° ESE visible
31 May 8.4 22:07:54 10° W 22:15:09 41° SSW 22:16:48 37° S visible
01 Jun 10.0 00:03:40 10° WSW 00:03:41 10° WSW 00:03:41 10° WSW visible
01 Jun 8.4 21:13:54 10° W 21:21:18 47° SSW 21:26:10 22° SE visible
01 Jun 9.3 23:09:01 10° WSW 23:13:02 22° SW 23:13:02 22° SW visible
02 Jun 8.3 20:20:01 10° W 20:27:26 51° S 20:34:59 10° ESE visible
02 Jun 8.8 22:14:41 10° W 22:21:19 30° SSW 22:22:24 29° S visible
03 Jun 8.7 21:20:34 10° W 21:27:31 36° SSW 21:31:47 21° SSE visible
03 Jun 9.8 23:16:59 10° WSW 23:18:40 13° SW 23:18:40 13° SW visible
04 Jun 8.6 20:26:35 10° W 20:33:42 42° SSW 20:40:58 10° SE visible
04 Jun 9.3 22:22:01 10° WSW 22:27:27 20° SSW 22:28:04 20° SSW visible
05 Jun 9.2 21:27:34 10° WSW 21:33:41 25° SSW 21:37:29 17° SSE visible
